TimeEDT,TemperatureF,Dew PointF,Humidity,Sea Level PressureIn,VisibilityMPH,Wind Direction,Wind SpeedMPH,Gust SpeedMPH,PrecipitationIn,Events,Conditions,WindDirDegrees,DateUTC
12:15 AM,66.2,44.6,46,29.51,10.0,South,21.9,27.6,N/A,Thunderstorm,Thunderstorm,170,2012-10-18 04:15:00
12:49 AM,66.2,44.6,46,29.58,1.5,West,25.3,32.2,N/A,Rain-Thunderstorm,Thunderstorms and Rain,260,2012-10-18 04:49:00
12:51 AM,66.2,48.2,52,29.59,1.0,WSW,20.7,32.2,N/A,Rain-Thunderstorm,Thunderstorms and Rain,250,2012-10-18 04:51:00
12:55 AM,63.0,54.1,73,29.58,3.0,WSW,16.1,32.2,0.15,Rain-Thunderstorm,Light Thunderstorms and Rain,250,2012-10-18 04:55:00
1:55 AM,56.5,54.9,94,29.60,2.0,SSW,9.2,-,0.32,Rain,Heavy Rain,200,2012-10-18 05:55:00
2:20 AM,57.2,55.4,94,29.60,5.0,South,11.5,-,N/A,Rain,Light Rain,190,2012-10-18 06:20:00
2:28 AM,57.2,55.4,94,29.60,10.0,South,10.4,-,N/A,Rain-Thunderstorm,Rain,190,2012-10-18 06:28:00
2:44 AM,55.4,55.4,100,29.58,5.0,SSE,11.5,-,N/A,Rain,Light Rain,160,2012-10-18 06:44:00
2:55 AM,56.1,54.7,95,29.57,7.0,SSE,12.7,-,0.14,Rain,Light Rain,160,2012-10-18 06:55:00
3:27 AM,55.4,53.6,94,29.54,10.0,SSE,17.3,25.3,N/A,,Overcast,160,2012-10-18 07:27:00
3:55 AM,55.8,53.1,91,29.52,10.0,South,11.5,-,0.01,,Overcast,170,2012-10-18 07:55:00
4:55 AM,55.6,53.1,91,29.56,10.0,South,11.5,19.6,0.01,,Overcast,190,2012-10-18 08:55:00
5:12 AM,55.4,53.6,94,29.57,6.0,WSW,15.0,-,N/A,Rain,Light Rain,250,2012-10-18 09:12:00
5:26 AM,53.6,50.0,88,29.59,10.0,WSW,17.3,26.5,N/A,,Overcast,250,2012-10-18 09:26:00
5:55 AM,52.2,49.1,89,29.60,10.0,West,10.4,-,0.00,,Overcast,260,2012-10-18 09:55:00
6:55 AM,51.1,48.6,91,29.64,10.0,SW,8.1,-,N/A,,Mostly Cloudy,220,2012-10-18 10:55:00
7:55 AM,50.5,48.4,92,29.65,10.0,SW,5.8,-,N/A,,Clear,230,2012-10-18 11:55:00
8:55 AM,52.0,49.3,90,29.68,10.0,SSW,8.1,-,N/A,,Clear,200,2012-10-18 12:55:00
9:55 AM,55.8,49.3,79,29.70,10.0,SW,9.2,-,N/A,,Clear,220,2012-10-18 13:55:00
10:55 AM,58.3,46.6,65,29.71,10.0,SSW,9.2,-,N/A,,Clear,200,2012-10-18 14:55:00
11:55 AM,61.0,46.0,58,29.71,10.0,South,6.9,17.3,N/A,,Clear,190,2012-10-18 15:55:00
12:55 PM,62.8,42.8,48,29.71,10.0,South,15.0,20.7,N/A,,Scattered Clouds,190,2012-10-18 16:55:00
1:55 PM,64.9,35.4,33,29.70,10.0,SW,15.0,24.2,N/A,,Mostly Cloudy,220,2012-10-18 17:55:00
2:55 PM,64.6,34.5,33,29.68,10.0,SSW,21.9,26.5,N/A,,Mostly Cloudy,200,2012-10-18 18:55:00
3:48 PM,59.0,35.6,42,29.69,10.0,West,18.4,36.8,N/A,Rain,Light Rain,270,2012-10-18 19:48:00
3:55 PM,57.2,36.5,46,29.71,10.0,West,17.3,29.9,0.00,Rain,Light Rain,270,2012-10-18 19:55:00
4:04 PM,59.0,37.4,45,29.68,10.0,WSW,11.5,29.9,N/A,,Scattered Clouds,250,2012-10-18 20:04:00
4:55 PM,63.1,33.6,33,29.67,10.0,South,15.0,-,0.00,,Partly Cloudy,190,2012-10-18 20:55:00
5:55 PM,62.2,31.5,31,29.67,10.0,SSW,9.2,20.7,N/A,,Scattered Clouds,210,2012-10-18 21:55:00
6:55 PM,58.1,34.0,40,29.68,10.0,South,6.9,-,N/A,,Mostly Cloudy,190,2012-10-18 22:55:00
7:55 PM,56.3,34.2,43,29.69,10.0,South,4.6,-,N/A,,Scattered Clouds,190,2012-10-18 23:55:00
8:55 PM,54.5,35.6,49,29.70,10.0,SSW,4.6,-,N/A,,Partly Cloudy,210,2012-10-19 00:55:00
9:55 PM,51.4,36.5,57,29.70,10.0,SW,6.9,-,N/A,,Mostly Cloudy,220,2012-10-19 01:55:00
10:55 PM,50.7,34.9,55,29.70,10.0,SW,5.8,-,N/A,,Clear,220,2012-10-19 02:55:00
11:55 PM,46.9,35.4,64,29.69,10.0,South,6.9,-,N/A,,Clear,170,2012-10-19 03:55:00